Regional Weather Roundup
Issued by NWS

Home | Current Version | Previous Version | Graphics & Text | Print | Product List | Glossary On
Versions: 1 2 3 4 5 6 7 8 9 10 11 12 13 14 15 16 17 18 19 20 21 22 23 24 25 26 27 28 29 30 31 32 33 34 35 36 37 38 39 40 41 42 43 44 45 46 47 48 49 50
000
ASUS43 KBIS 020320
RWRND

NORTH DAKOTA REGIONAL WEATHER ROUNDUP
NATIONAL WEATHER SERVICE BISMARCK ND
1000 PM CDT FRI AUG 01 2014

NOTE: "FAIR" INDICATES FEW OR NO CLOUDS BELOW 12,000 FEET WITH NO
SIGNIFICANT WEATHER AND/OR OBSTRUCTIONS TO VISIBILITY.


NDZ001>003-009>011-017-020400-
NORTHWEST NORTH DAKOTA

CITY           SKY/WX    TMP DP  RH WIND       PRES   REMARKS
WILLISTON      CLEAR     74  56  53 E7        30.06S
MINOT          CLEAR     67  61  81 NE3       30.07R
MINOT AFB      CLEAR     71  63  77 E2        30.06R
$$

NDZ018>021-031>035-040>046-020400-
SOUTHWEST NORTH DAKOTA

CITY           SKY/WX    TMP DP  RH WIND       PRES   REMARKS
BISMARCK       MOCLDY    66  62  87 E8        30.05S
DICKINSON      CLEAR     66  59  78 NE7       30.08R
GARRISON         N/A     68  63  84 NE3       30.07R
HETTINGER ARPT CLEAR     71  59  65 NE16      30.07R
$$

NDZ004>008-012>016-024-026-027-054-020400-
NORTHEAST NORTH DAKOTA

CITY           SKY/WX    TMP DP  RH WIND       PRES   REMARKS
GRAND FORKS    PTCLDY    67  61  81 CALM      30.05R
GRND FRKS AFB  PTCLDY    67  64  88 S3        30.07R
DEVILS LAKE    CLEAR     68  59  73 CALM      30.07R
$$

NDZ022-023-025-028>030-036>039-047>053-020400-
SOUTHEAST NORTH DAKOTA

CITY           SKY/WX    TMP DP  RH WIND       PRES   REMARKS
FARGO          PTCLDY    68  60  75 NE5       30.05S
JAMESTOWN      PTCLDY    69  61  75 E7        30.07R
$$




USA.gov is the U.S. government's official web portal to all federal, state and local government web resources and services.